カタログに戻る

DELTA 1 DEB

運用中LEO
NORAD 3811·DEBRIS·🇺🇸 United States

打ち上げ Dec 15, 1968 から Vandenberg Space Force Base

Loading…

次のパス (今後24時間)

TLE

最新Source: Space-Track

元期: Sep 14, 2026, 07:24 UTC

1 03811U 68114C   26257.30841560 -.00000038  00000-0  52892-4 0  9994
2 03811 101.9086 201.8588 0137748 345.3780 170.8515 12.76397524689592

AllMySatでDELTA 1 DEBをリアルタイム追跡

Download on the App Store